Miscellaneous Local Product
Issued by NWS Hastings, NE

Home | Current Version | Previous Version | Graphics & Text | Print | Product List | Glossary On
Versions: 1 2 3 4 5 6 7 8 9 10 11 12 13 14 15 16 17 18 19 20 21 22 23 24 25 26 27 28 29 30 31 32 33 34 35 36 37 38 39 40 41 42 43 44 45 46 47 48 49 50
000
AXUS43 KGID 220002
MISGRI

GID CWA HOURLY WEATHER ROUNDUP
NATIONAL WEATHER SERVICE HASTINGS NE
700 PM CDT WED JUN 21 2017

NOTE: "FAIR" INDICATES FEW OR NO CLOUDS BELOW 12,000 FEET WITH NO
SIGNIFICANT WEATHER AND/OR OBSTRUCTIONS TO VISIBILITY.

...SOUTH CENTRAL NEBRASKA...

CITY           SKY/WX    TMP DP  RH WIND       PRES   REMARKS
GRAND ISLAND   CLOUDY    95  69  42 S15       29.67F HX 100
HASTINGS       SUNNY     95  67  39 S10G17    29.70F HX  99
KEARNEY        SUNNY     91  66  43 S7        29.69F HX  94
ORD            CLOUDY    96  61  31 S12       29.65F HX  96
YORK           SUNNY     93  68  43 S13G18    29.68S HX  97
AURORA         SUNNY     95  67  39 S15       29.67F HX  99
LEXINGTON      CLOUDY    89  69  51 S16G22    29.69S HX  93
HOLDREGE       MOSUNNY   91  65  41 SE6       29.69F HX  92
HEBRON         SUNNY     95  62  33 S22G28    29.70S HX  96

...NEBRASKA PANHANDLE...

CITY           SKY/WX    TMP DP  RH WIND       PRES   REMARKS
CHADRON        SUNNY     94  49  21 N8        29.73F HX  90
ALLIANCE       SUNNY     92  50  23 E5        29.80F
SCOTTSBLUFF    SUNNY     97  41  14 N6        29.79F HX  92
SIDNEY         SUNNY     94  40  15 NW5       29.85F HX  90

...WESTERN AND NORTH CENTRAL NEBRASKA...

CITY           SKY/WX    TMP DP  RH WIND       PRES   REMARKS
VALENTINE      MOSUNNY   98  50  19 N7        29.71F HX  95
AINSWORTH      MOSUNNY   93  59  32 NE7       29.71F HX  92
ONEILL         MOSUNNY   92  67  43 N8        29.67F HX  95
BROKEN BOW     SUNNY     97  64  33 S8        29.68F HX  99
IMPERIAL       SUNNY    100  41  13 N10       29.75S HX  95
NORTH PLATTE   SUNNY    101  49  17 NW12      29.71S HX  98
MCCOOK         SUNNY    100  53  20 W3        29.67F HX  98

...EASTERN NEBRASKA...

CITY           SKY/WX    TMP DP  RH WIND       PRES   REMARKS
NORFOLK        MOSUNNY   94  68  42 S15       29.61F HX  98
SO SIOUX CITY  SUNNY     96  71  44 SW12      29.62F HX 103
TEKAMAH        SUNNY     96  64  34 S21G29    29.64F HX  98
COLUMBUS       SUNNY     95  70  44 S14G22    29.65F HX 101
ALBION         MOSUNNY   95  67  39 S12G18    29.65F HX  98
OMAHA EPPLEY   MOSUNNY   95  64  35 S20G26    29.66F HX  97
OFFUTT AFB     SUNNY     93  64  37 S16G26    29.68S HX  94
MILLARD        SUNNY     96  68  39 S8G20     29.67S HX 100
LINCOLN        SUNNY     93  65  39 S18G29    29.68S HX  95
NEBRASKA CITY  SUNNY     90  62  39 S18       29.72S HX  90
BEATRICE       SUNNY     92  62  36 S15G22    29.72S HX  92
FALLS CITY     SUNNY     89  61  38 S22G30    29.74F

...NORTHERN KANSAS...

CITY           SKY/WX    TMP DP  RH WIND       PRES   REMARKS
GOODLAND       SUNNY     95  48  20 NW13      29.77F HX  91
HILL CITY      CLOUDY    98  68  37 S12G23    29.67F HX 103
NORTON         CLEAR     99  54  22 SE12G21   29.67S HX  96
PHILLIPSBURG   SUNNY     99  64  32 SE16G25   29.67S HX 101
SMITH CENTER   MOSUNNY   95  64  36 S21G29    29.68S HX  97
HAYS           SUNNY     94  69  44 S24G35    29.69F HX  99
RUSSELL        SUNNY     96  64  34 S28G38    29.69F HX  98
CONCORDIA      SUNNY     94  59  31 S23G32    29.72S HX  93
SALINA         SUNNY     96  53  23 S21G38    29.73F HX  93
TOPEKA         SUNNY     89  62  40 S14G26    29.79F



USA.gov is the U.S. government's official web portal to all federal, state and local government web resources and services.